E1057 Weather Reports


time (UTC)temp
C
wind
direction
speed
KPH
gust
KPH
rain 1hr
cm
rain 24hr
cm
rain mn
cm
humidity
%
barometer
mb
20260503232517 15 291 0.0 16.1 0.00 0.00 0.00 49 1012.3
20260503232046 15 290 1.6 16.1 0.00 0.00 0.00 49 1012.3
20260503231508 15 257 0.0 4.8 0.00 0.00 0.00 51 1012.4
20260503231038 15 285 0.0 4.8 0.00 0.00 0.00 49 1012.4
20260503230507 15 285 0.0 9.7 0.00 0.00 0.00 50 1012.4
20260503230040 15 283 0.0 9.7 0.00 0.00 0.00 48 1012.3
20260503225558 15 294 0.0 11.3 0.00 0.00 0.00 47 1012.3
20260503225033 16 321 0.0 11.3 0.00 0.00 0.00 47 1012.3
20260503224504 16 351 0.0 3.2 0.00 0.00 0.00 48 1012.4
20260503224035 16 5 0.0 1.6 0.00 0.00 0.00 48 1012.4
20260503223501 16 5 0.0 9.7 0.00 0.00 0.00 50 1012.4
20260503223035 16 5 0.0 9.7 0.00 0.00 0.00 48 1012.3
20260503222553 16 309 0.0 8.0 0.00 0.00 0.00 49 1012.3
20260503222026 16 69 1.6 8.0 0.00 0.00 0.00 46 1012.3
20260503221600 16 42 0.0 6.4 0.00 0.00 0.00 49 1012.3
20260503221026 16 27 0.0 3.2 0.00 0.00 0.00 48 1012.3
20260503220552 16 27 0.0 4.8 0.00 0.00 0.00 48 1012.3
20260503220022 16 28 0.0 4.8 0.00 0.00 0.00 47 1012.5
20260503215550 16 336 0.0 4.8 0.00 0.00 0.00 47 1012.5
20260503215025 16 323 0.0 4.8 0.00 0.00 0.00 46 1012.5
20260503214552 16 323 0.0 6.4 0.00 0.00 0.00 46 1012.5
20260503214014 16 84 0.0 6.4 0.00 0.00 0.00 44 1012.6
20260503213546 16 39 0.0 4.8 0.00 0.00 0.00 45 1012.6
20260503213019 17 290 0.0 12.9 0.00 0.00 0.00 42 1012.8
20260503212538 17 276 0.0 12.9 0.00 0.00 0.00 44 1012.8
20260503212003 17 91 0.0 8.0 0.00 0.00 0.00 41 1012.8
20260503211537 17 98 0.0 1.6 0.00 0.00 0.00 42 1012.8
20260503211013 16 98 0.0 8.0 0.00 0.00 0.00 43 1012.8
20260503210535 16 99 0.0 8.0 0.00 0.00 0.00 41 1012.8
20260503210002 16 105 0.0 4.8 0.00 0.00 0.00 43 1012.8
20260503205535 16 105 0.0 6.4 0.00 0.00 0.00 46 1012.8
20260503205058 16 105 0.0 9.7 0.00 0.00 0.00 45 1012.8
20260503204506 16 120 0.0 9.7 0.00 0.00 0.00 45 1013.2
20260503204038 16 304 0.0 9.7 0.00 0.00 0.00 44 1013.2
20260503203504 16 304 1.6 17.7 0.00 0.00 0.00 45 1013.2
20260503203036 16 64 1.6 17.7 0.00 0.00 0.00 44 1013.4
20260503202558 16 271 0.0 9.7 0.00 0.00 0.00 43 1013.4
20260503202022 16 44 0.0 16.1 0.00 0.00 0.00 43 1013.4
20260503201552 17 284 1.6 16.1 0.00 0.00 0.00 42 1013.4
20260503201015 17 109 3.2 14.5 0.00 0.00 0.00 42 1013.5
20260503200543 17 52 0.0 17.7 0.00 0.00 0.00 41 1013.5
20260503200017 17 14 3.2 17.7 0.00 0.00 0.00 41 1014.0
20260503195541 17 39 0.0 3.2 0.00 0.00 0.00 41 1014.0
20260503195008 17 286 0.0 9.7 0.00 0.00 0.00 40 1014.0
20260503194540 17 155 0.0 8.0 0.00 0.00 0.00 40 1014.1
20260503194009 17 95 0.0 9.7 0.00 0.00 0.00 40 1014.1
20260503193536 17 94 0.0 9.7 0.00 0.00 0.00 41 1014.1
20260503193117 17 107 0.0 19.3 0.00 0.00 0.00 42 1014.1
20260503192527 17 76 6.4 19.3 0.00 0.00 0.00 40 1014.4
20260503192049 17 12 0.0 4.8 0.00 0.00 0.00 42 1014.4
20260503191538 17 314 0.0 4.8 0.00 0.00 0.00 41 1014.5
20260503191047 17 316 1.6 4.8 0.00 0.00 0.00 42 1014.5
20260503190511 17 316 0.0 9.7 0.00 0.00 0.00 45 1014.5
20260503190036 17 331 0.0 9.7 0.00 0.00 0.00 41 1014.5
20260503185556 17 331 0.0 8.0 0.00 0.00 0.00 43 1014.5
20260503185021 17 335 0.0 4.8 0.00 0.00 0.00 45 1014.5
20260503184549 17 333 0.0 6.4 0.00 0.00 0.00 44 1014.5
20260503184025 17 331 1.6 6.4 0.00 0.00 0.00 42 1014.6
20260503183549 17 305 0.0 4.8 0.00 0.00 0.00 44 1014.6
20260503183021 16 121 0.0 6.4 0.00 0.00 0.00 46 1014.9
20260503182549 16 159 0.0 6.4 0.00 0.00 0.00 44 1014.9
20260503182024 16 323 0.0 1.6 0.00 0.00 0.00 45 1014.9
20260503181550 16 321 0.0 3.2 0.00 0.00 0.00 43 1015.1
20260503181006 16 322 0.0 3.2 0.00 0.00 0.00 45 1015.1
20260503180534 16 322 0.0 0.0 0.00 0.00 0.00 41 1015.1
20260503175529 15 322 0.0 0.0 0.00 0.00 0.00 40 1015.2
20260503175057 15 322 0.0 0.0 0.00 0.00 0.00 44 1015.2
20260503174532 16 322 0.0 0.0 0.00 0.00 0.00 39 1015.2
20260503174053 16 322 0.0 8.0 0.00 0.00 0.00 40 1015.2
20260503173525 16 322 0.0 8.0 0.00 0.00 0.00 36 1015.2
20260503173058 16 34 0.0 6.4 0.00 0.00 0.00 42 1015.2
20260503172525 16 34 0.0 3.2 0.00 0.00 0.00 39 1015.7
20260503172058 16 34 0.0 3.2 0.00 0.00 0.00 41 1015.7
20260503171528 16 34 0.0 3.2 0.00 0.00 0.00 44 1015.8
20260503171057 16 34 0.0 3.2 0.00 0.00 0.00 42 1015.8
20260503170530 16 34 0.0 3.2 0.00 0.00 0.00 41 1015.8
20260503170104 15 34 0.0 0.0 0.00 0.00 0.00 42 1015.8
20260503151012 12 45 0.0 0.0 0.00 0.00 0.00 54 1017.1
20260503150531 12 45 0.0 3.2 0.00 0.00 0.00 56 1017.1
20260503131053 8 74 0.0 0.0 0.00 0.00 0.00 72 1016.9
20260503130528 7 74 0.0 6.4 0.00 0.00 0.00 73 1016.9
20260503110512 1 75 0.0 0.0 0.00 0.00 0.00 73 1016.0
20260503081552 2 75 0.0 0.0 0.00 0.00 0.00 84 1013.9
20260503081026 3 75 0.0 0.0 0.00 0.00 0.00 83 1013.8
20260503080558 3 75 0.0 0.0 0.00 0.00 0.00 83 1013.8
20260503072542 2 75 0.0 0.0 0.00 0.00 0.00 84 1013.3
20260503072014 2 75 0.0 0.0 0.00 0.00 0.00 84 1013.3
20260503071539 3 75 0.0 0.0 0.00 0.00 0.00 84 1013.1
20260503071006 3 75 0.0 0.0 0.00 0.00 0.00 84 1013.1
20260503070535 3 75 0.0 0.0 0.00 0.00 0.00 84 1013.1
20260503055030 3 75 0.0 0.0 0.00 0.00 0.00 84 1013.1
20260503054611 3 75 0.0 0.0 0.00 0.00 0.00 84 1013.1
20260503054027 3 75 0.0 0.0 0.00 0.00 0.00 84 1013.1
20260503053556 3 75 0.0 0.0 0.00 0.00 0.00 84 1013.1
20260503053030 3 75 0.0 0.0 0.00 0.00 0.00 84 1013.0
20260503052555 3 75 0.0 0.0 0.00 0.00 0.00 83 1013.0
20260503052019 3 75 0.0 0.0 0.00 0.00 0.00 84 1013.0
20260503051550 3 75 0.0 0.0 0.00 0.00 0.00 83 1013.0
20260503051011 3 75 0.0 0.0 0.00 0.00 0.00 83 1012.9
20260503050541 3 75 0.0 0.0 0.00 0.00 0.00 82 1012.9
20260503050010 3 75 0.0 0.0 0.00 0.00 0.00 82 1012.9
20260503045545 3 75 0.0 0.0 0.00 0.00 0.00 82 1012.9
20260503045003 3 75 0.0 0.0 0.00 0.00 0.00 82 1012.9
20260503044541 4 75 0.0 0.0 0.00 0.00 0.00 82 1012.6
20260503044059 4 75 0.0 0.0 0.00 0.00 0.00 82 1012.6
20260503043523 4 75 0.0 0.0 0.00 0.00 0.00 81 1012.6
20260503043052 4 75 0.0 0.0 0.00 0.00 0.00 80 1012.5
20260503042507 4 75 0.0 0.0 0.00 0.00 0.00 80 1012.5
20260503042042 4 75 0.0 0.0 0.00 0.00 0.00 80 1012.5
20260503041511 4 75 0.0 0.0 0.00 0.00 0.00 80 1012.4
20260503041045 4 75 0.0 0.0 0.00 0.00 0.00 80 1012.4
20260503040514 4 75 0.0 0.0 0.00 0.00 0.00 80 1012.4
20260503040040 5 75 0.0 0.0 0.00 0.00 0.00 79 1012.3
20260503035504 5 75 0.0 0.0 0.00 0.00 0.00 78 1012.3
20260503035038 5 75 0.0 0.0 0.00 0.00 0.00 78 1012.3
20260503034556 5 75 0.0 0.0 0.00 0.00 0.00 78 1012.3
20260503034023 5 75 0.0 0.0 0.00 0.00 0.00 77 1012.1
20260503033551 5 75 0.0 0.0 0.00 0.00 0.00 76 1012.1
20260503033022 5 75 0.0 0.0 0.00 0.00 0.00 76 1012.1
20260503032546 5 75 0.0 0.0 0.00 0.00 0.00 74 1012.1
20260503032012 5 75 0.0 0.0 0.00 0.00 0.00 74 1012.1
20260503031538 5 75 0.0 0.0 0.00 0.00 0.00 74 1012.0
20260503031008 5 75 0.0 0.0 0.00 0.00 0.00 75 1012.0
20260503030536 5 75 0.0 0.0 0.00 0.00 0.00 74 1012.0
20260503030104 6 75 0.0 0.0 0.00 0.00 0.00 73 1012.0
20260503025527 6 75 0.0 0.0 0.00 0.00 0.00 72 1011.8
20260503025056 6 75 0.0 0.0 0.00 0.00 0.00 72 1011.8
20260503024526 6 75 0.0 0.0 0.00 0.00 0.00 71 1011.6
20260503024056 6 75 0.0 0.0 0.00 0.00 0.00 69 1011.6
20260503023519 6 75 0.0 0.0 0.00 0.00 0.00 68 1011.6
20260503023053 6 75 0.0 0.0 0.00 0.00 0.00 68 1011.6
20260503022517 6 75 0.0 0.0 0.00 0.00 0.00 68 1011.6
20260503022041 6 75 0.0 0.0 0.00 0.00 0.00 68 1011.6
20260503021508 7 75 0.0 0.0 0.00 0.00 0.00 68 1011.4
20260503021030 7 75 0.0 0.0 0.00 0.00 0.00 68 1011.4
20260503020600 7 75 0.0 0.0 0.00 0.00 0.00 68 1011.4
20260503020033 7 75 0.0 0.0 0.00 0.00 0.00 67 1011.1
20260503015558 7 75 0.0 0.0 0.00 0.00 0.00 67 1011.1
20260503015027 7 75 0.0 0.0 0.00 0.00 0.00 64 1011.1
20260503014602 7 75 0.0 0.0 0.00 0.00 0.00 64 1011.1
20260503014031 7 75 0.0 0.0 0.00 0.00 0.00 64 1011.0
20260503013600 7 75 0.0 0.0 0.00 0.00 0.00 64 1011.0
20260503013502 7 75 0.0 0.0 0.00 0.00 0.00 64 1011.0
20260503013036 8 75 0.0 0.0 0.00 0.00 0.00 62 1010.6
20260503012559 8 75 0.0 0.0 0.00 0.00 0.00 61 1010.6
20260503012017 8 75 0.0 0.0 0.00 0.00 0.00 60 1010.6
20260503011545 8 75 0.0 0.0 0.00 0.00 0.00 60 1010.5
20260503011017 8 75 0.0 0.0 0.00 0.00 0.00 58 1010.5
20260503010540 9 75 0.0 0.0 0.00 0.00 0.00 59 1010.5
20260503010008 9 75 0.0 0.0 0.00 0.00 0.00 56 1010.3
20260503005538 9 75 0.0 0.0 0.00 0.00 0.00 54 1010.3
20260503005004 10 75 0.0 0.0 0.00 0.00 0.00 53 1010.3
20260503004537 10 75 0.0 0.0 0.00 0.00 0.00 53 1009.9
20260503004057 10 75 0.0 0.0 0.00 0.00 0.00 52 1009.9
20260503003526 10 75 0.0 0.0 0.00 0.00 0.00 52 1009.9
20260503003058 10 75 0.0 1.6 0.00 0.00 0.00 53 1009.9
20260503002528 10 75 0.0 1.6 0.00 0.00 0.00 52 1009.7
20260503002052 11 75 0.0 0.0 0.00 0.00 0.00 52 1009.7
20260503001534 11 75 0.0 0.0 0.00 0.00 0.00 50 1009.3
20260503001053 11 75 0.0 0.0 0.00 0.00 0.00 50 1009.3
20260503000523 11 75 0.0 0.0 0.00 0.00 0.00 51 1009.3
20260503000051 11 75 0.0 0.0 0.00 0.00 0.00 49 1009.3
20260502235523 11 75 0.0 1.6 0.00 0.00 0.00 49 1009.1
20260502235047 11 75 0.0 1.6 0.00 0.00 0.00 48 1009.1
20260502234511 11 75 0.0 0.0 0.00 0.00 0.00 51 1008.9
20260502234043 11 75 0.0 0.0 0.00 0.00 0.00 49 1008.9
20260502233507 11 75 0.0 0.0 0.00 0.00 0.00 49 1008.9
20260502233043 11 75 0.0 0.0 0.00 0.00 0.00 48 1008.8